Regional Weather Roundup
Issued by NWS Kansas City/Pleasant Hill, MO

Home | Current Version | Previous Version | Text Only | Print | Product List | Glossary On
Versions: 1 2 3 4 5 6 7 8 9 10 11 12 13 14 15 16 17 18 19 20 21 22 23 24 25 26 27 28 29 30 31 32 33 34 35 36 37 38 39 40 41 42 43 44 45 46 47 48 49 50
000
ASUS43 KEAX 261711
RWREAX

WEATHER ROUNDUP FOR EASTERN KANSAS AND NORTHWEST MISSOURI
NATIONAL WEATHER SERVICE KANSAS CITY/PLEASANT HILL MO
1100 AM CST WED NOV 26 2014

KSZ040-057-103>105-MOZ028-029-037-043-261800-
...KANSAS CITY METROPOLITAN AREA...

CITY           SKY/WX    TMP DP  RH WIND       PRES   REMARKS
K.C. INTL      PTSUNNY   41  32  70 NW21G30   29.98R WCI  32
K.C. DOWNTOWN  CLOUDY    43  32  65 NW15G24   29.99R
LEES SUMMIT    CLOUDY    41  32  70 NW20G29   29.99R WCI  32
OLATHE - IXD   CLOUDY    41  31  67 NW21G33   30.01R WCI  32
OLATHE - OJC   CLOUDY    42  31  64 NW16G28   30.00R WCI  34
LAWRENCE       CLOUDY    42  29  59 NW26G32   30.03R WCI  32

$$

MOZ001>008-011>017-020>025-030>033-038>040-044>046-053-054-261800-
...NORTHERN AND CENTRAL MISSOURI...

CITY           SKY/WX    TMP DP  RH WIND       PRES   REMARKS
ST. JOSEPH     CLOUDY    40  33  76 NW25G32   29.99R WCI  29
MOSBY          CLOUDY    41  32  70 W18G25    29.97S WCI  32
WARRENSBURG    CLOUDY    41  34  75 W13G18    29.98S WCI  34
WHITEMAN AFB   PTSUNNY   42  35  76 NW14      29.96S WCI  35
CLINTON        PTSUNNY   45  36  70 NW14      30.00R
SEDALIA        PTSUNNY   43  31  62 W13       29.96S
WARSAW         NOT AVBL
MARSHALL       CLOUDY    43  37  81 W13       29.96S
CHILLICOTHE      N/A     39  34  82 VRB6      29.94R WCI  35
MOBERLY        CLOUDY    36  32  87 SW9       29.95  WCI  29
KIRKSVILLE     CLOUDY    32  32 100 S7        29.93S FOG     WCI  26

$$

MOZ041-047>049-056>058-063>065-088>090-097-261800-
...EASTERN AND SOUTHERN MISSOURI...

CITY           SKY/WX    TMP DP  RH WIND       PRES   REMARKS
ST. LOUIS INTL CLOUDY    36  28  73 SE10      30.03F WCI  28
SPIRIT OF STL  CLOUDY    34  27  75 CALM      30.01F
COLUMBIA       CLOUDY    36  34  92 SW9       29.95F WCI  29
JEFFERSON CITY CLOUDY    37  35  92 SW5       29.98S WCI  33
MEXICO         LGT SNOW N/A N/A N/A SE6       29.96
ROLLA          LGT SNOW  32  31  96 S8        29.95F VSB 1   WCI  25
LEBANON        CLOUDY    37  36  93 W9        29.97F WCI  31
OSAGE BEACH    CLOUDY    36  34  93 SW8       29.97F WCI  29
SPRINGFIELD    MOSUNNY   43  35  73 W13       29.99S
BRANSON        MOSUNNY   43  34  70 W7        30.02S
NEVADA         MOSUNNY   45  34  65 W16G24    30.03S
JOPLIN         SUNNY     48  30  49 NW15      30.05S
WEST PLAINS    LGT SNOW  33  31  92 W5        29.99F FOG     WCI  29

$$

IAZ060-094-KSZ022-034>040-054-083-096-NEZ052-066-093-261800-
...KANSAS...SOUTHEAST NEBRASKA AND IOWA...

CITY           SKY/WX    TMP DP  RH WIND       PRES   REMARKS
TOPEKA         PTSUNNY   44  28  53 NW26G37   30.06R WCI  35
MANHATTAN      MOSUNNY   42  25  50 N17G30    30.12R WCI  34
EMPORIA        CLOUDY    43  24  47 NW20G28   30.08R WCI  34
CHANUTE        MOSUNNY   49  26  41 NW20G33   30.06R
WICHITA        MOSUNNY   48  24  39 NW31G37   30.14R
OMAHA          FLURRIES  33  28  81 N23G32    30.06R WCI  21
LINCOLN        CLOUDY    31  24  75 NW29G37   30.12R WCI  16
FALLS CITY     CLOUDY    37  30  75 NW24G38   30.02R WCI  26
LAMONI         CLOUDY    35  32  88 NW15      29.89R WCI  25
DES MOINES     LGT SNOW  30  27  88 NE10      29.95R FOG     WCI  21

$$



USA.gov is the U.S. government's official web portal to all federal, state and local government web resources and services.